Showing default

COSMOS 1692, 16140

Orbit data source: Space-Track

COSMOS 1692, 16140 is a payload satellite owned by GUKOS (CIS) in LEO that was launched on Wed, 09 Oct 1985 UTC via a TSIKLON-3 launch vehicle from the Plesetsk Missile And Space Complex (PKMTR). Payloads include a variety of satellites, spacecraft, and rockets equipped with specific instruments for various scientific and technological missions. These include communications satellites like Starlink; space stations such as the ISS; scientific satellites like the Hubble; Earth observation satellites from companies like Planet Labs, Umbra, and HawkEye 360; GPS; miniature CubeSats for education and research; and military/defense satellites.

Loading next visibility...
COSMOS 1692 details
Identifier
16140, 1985-094C
Orbit
LEO
Last TLE update7 hours ago
Origin
Flag of CISGUKOS (CIS)
ManufacturerNPO PM
MissionDefense Communications
Bus & MotorSTRELA-3, Unknown motor
Mass225 kg wet, 225 kg dry
Launch date (UTC)
1985-10-09 (39 years ago)
Launch vehicle
TSIKLON-3
Launch site
Plesetsk Missile And Space Complex (PKMTR)
Object type
Payload
Rocket body
Debris
Shape & HBRCyl, 1.6 m
Radar Cross Section1.257 m², Medium (>0.1 m² and < 1m²)

Expand to show TLE details & history

TLE from 7 hours ago
0 COSMOS 1692
1 16140U 85094C   24361.59347139  .00000022  00000-0  62493-4 0  9997
2 16140  82.5997 214.0928 0018148 148.4225 239.5941 12.64913073810411
Epoch: 2024-12-26T14:14Z
Definitive object data (Epoch: 2024-12-26T14:14:35.928Z)
Latitude27.62317°
Longitude-91.24953°
Altitude1,413.148 km
Speed7.153 km/s
True Right ascension14h 31m 52s
True Declination27° 29' 38"
Sunlit
Object was in daylight at TLE epoch
Visualization TLE readout
Latitude-47.72265°
Longitude-103.4913°
Altitude1,434.709 km
Speed7.137 km/s
Apparent Right ascension11h 22m 09s
Apparent Declination-50° 20' 25"
Sunlit
Object is in daylight
Visualization observer readout
Local Sidereal Time20:49:06
Azimuth235.769° WSW
Elevation-61.444°
Doppler factor1
Orbital elements
Apogee altitude1,414.163 km
Perigee altitude1,385.931 km
Semi-major axis7,778.184 km
Eccentricity0.0018148
Inclination82.5997°
RAAN214.0928°
Arg. of periapsis148.4225°
True anomaly239.41495°
Mean anomaly239.5941°
Eccentric anomaly239.5045°
Mean motion3.16392 °/min
BSTAR0.000062493
Orbital period113.78 mins
Loading maneuver chart data...
Loading historical data...
Loading historical data...
Loading historical data...
Loading historical data...
Loading historical data...
Loading historical data...
Loading historical data...

COSMOS 1692 Visibility forecast

Observer location: undefined°, undefined

Span
Click to sort rows by Start time (UTC) header in descending order
Start Az.
Max El. time (UTC)
Max El. Az.
Max El.
End time (UTC)
End Az.
7 mins2024-12-27 00:13:07.191Z31.821° NE2024-12-27 00:17:07.191Z61.728° ENE13.582°2024-12-27 00:20:07.191Z84.541° E
15 mins2024-12-27 02:06:07.191Z356.376° N2024-12-27 02:13:07.191Z73.895° E44.155°2024-12-27 02:21:07.191Z167.348° S
9 mins2024-12-27 04:03:07.191Z313.266° NW2024-12-27 04:07:07.191Z279.227° WNW19.1°2024-12-27 04:12:07.191Z239.542° WSW
4 mins2024-12-27 13:04:07.191Z88.637° E2024-12-27 13:06:07.191Z73.662° E12.266°2024-12-27 13:08:07.191Z58.863° ENE
15 mins2024-12-27 14:52:07.191Z176.712° S2024-12-27 14:59:07.191Z97.182° ESE44.125°2024-12-27 15:07:07.191Z11.026° NNE
10 mins2024-12-27 16:50:07.191Z254.462° W2024-12-27 16:55:07.191Z297.248° NW20.375°2024-12-27 17:00:07.191Z337.625° N
|